Weather Service Report


970 
ASUS45 KPSR 202310
RWRAZ 

ARIZONA HOURLY REGIONAL WEATHER ROUNDUP
NATIONAL WEATHER SERVICE PHOENIX AZ
400 PM MST MON SEP 20 2021

NOTE: FAIR INDICATES FEW OR NO CLOUDS BELOW 12,000 FEET WITH NO
SIGNIFICANT WEATHER AND/OR OBSTRUCTIONS TO VISIBILITY.

AZZ001>003-036-210000-
NORTHWEST ARIZONA
  
CITY           SKY/WX    TMP DP  RH WIND       PRES   REMARKS
BULLHEAD CITY  SUNNY     93  32  11 N25       29.89F                  
KINGMAN        SUNNY     88  35  15 N10       30.08F                  
$$

AZZ004>008-015-016-018-210000-
NORTH CENTRAL ARIZONA
  
CITY           SKY/WX    TMP DP  RH WIND       PRES   REMARKS
GRAND CANYON   MOSUNNY   73  29  19 W10       30.27F                  
WILLIAMS       PTSUNNY   72  34  25 W8        30.27F                  
PRESCOTT       MOSUNNY   81  31  16 W6        30.15F                  
FLAGSTAFF      PTSUNNY   73  34  23 SW10      30.28F                  
PAYSON         MOSUNNY   81  34  18 VRB5G13   30.18F                  
PAGE           SUNNY     79  27  14 E8        30.13F                  
$$

AZZ009>014-017-210000-
NORTHEAST ARIZONA
  
CITY           SKY/WX    TMP DP  RH WIND       PRES   REMARKS
WINSLOW        PTSUNNY   83  33  16 N13       30.13S                  
SAINT JOHNS    SUNNY     83  35  18 W12G21    30.15F                  
WINDOW ROCK    MOSUNNY   76  28  17 W7        30.23S                  
SHOW LOW       SUNNY     77  36  22 S14G20    30.24S                  
$$

AZZ540-542>544-546-548-210000-
GREATER PHOENIX AREA
  
CITY           SKY/WX    TMP DP  RH WIND       PRES   REMARKS
PHOENIX        MOSUNNY   97  40  14 NW6       29.87F                  
BUCKEYE          N/A     97  30   9 CALM      29.88F                  
GLENDALE       SUNNY     99  37  12 SW8       29.89F                  
DEER VALLEY    SUNNY     95  32  11 NW8       29.91F                  
SCOTTSDALE     SUNNY     96  38  13 W7        29.92F                  
MESA-FALCON    SUNNY     96  42  15 W9        29.90F                  
MESA-GATEWAY   SUNNY     95  43  16 SW3       29.92F DUSTDEVL         
CHANDLER       SUNNY     97  45  16 W7G18     29.90F                  
$$

AZZ539-553-210000-
SOUTHWEST MARICOPA COUNTY AND PINAL COUNTY
  
CITY           SKY/WX    TMP DP  RH WIND       PRES   REMARKS
CASA GRANDE    SUNNY     96  46  18 VRB3      29.91F                  
$$

AZZ503-504-507>509-210000-
SOUTHEAST ARIZONA
  
CITY           SKY/WX    TMP DP  RH WIND       PRES   REMARKS
TUCSON         SUNNY     96  48  19 N7        29.98F                  
RYAN FIELD     SUNNY     95  46  18 NW12G18   29.94F                  
NOGALES        SUNNY     89  51  27 W6G18     30.06F                  
SIERRA VISTA   SUNNY     87  46  23 NW16      30.12F                  
SAFFORD        SUNNY     94  49  21 NW13G28   29.96F                  
$$

AZZ532-210000-
SOUTHWEST ARIZONA
  
CITY           SKY/WX    TMP DP  RH WIND       PRES   REMARKS
YUMA           SUNNY     99  51  19 VRB3      29.81F                  
$$

CAZ041-043-047-048-061-525>527-560>570-210000-
SOUTHERN CALIFORNIA
  
CITY           SKY/WX    TMP DP  RH WIND       PRES   REMARKS
DOWNTOWN L.A.  SUNNY     80  59  48 W6        29.88S                  
L.A. AIRPORT   SUNNY     74  61  63 W13       29.89F                  
SAN DIEGO      MOSUNNY   74  62  66 W7        29.92S                  
BURBANK        SUNNY     87  55  33 S10       29.88S                  
ONTARIO        SUNNY     92  51  24 W13       29.88F                  
RIVERSIDE      SUNNY     92  51  24 W9G20     29.87F                  
PALM SPRINGS   SUNNY    101  37  11 SE8       29.86F                  
EL CENTRO NAS  SUNNY    100  45  15 E8        29.83F                  
IMPERIAL       SUNNY     99  44  15 CALM      29.81F                  
BLYTHE         SUNNY    100  36  11 CALM      29.85F                  
NEEDLES        SUNNY     97  28   8 N13       29.91F                  
$$

NVZ020-UTZ003-210000-
SOUTHERN NEVADA-UTAH
  
CITY           SKY/WX    TMP DP  RH WIND       PRES   REMARKS
LAS VEGAS      MOSUNNY   87  28  12 N8        30.05F                  
SALT LAKE CITY MOSUNNY   65  28  24 W9        30.32S                  
$$

NMZ009-TXZ055-210000-
NEW MEXICO-WEST TEXAS
  
CITY           SKY/WX    TMP DP  RH WIND       PRES   REMARKS
ALBUQUERQUE    MOSUNNY   85  31  14 N10G18    30.07F                  
EL PASO        MOSUNNY   94  36  13 NW14G28   29.98S                  
$$


........................KEY........................
SKY/WX - SKY CONDITION/WEATHER
TMP    - TEMPERATURE IN FAHRENHEIT
DP     - DEW POINT IN FAHRENHEIT
RH     - RELATIVE HUMIDITY IN PERCENT
WIND   - DIRECTION AND SPEED IN MILES PER HOUR (MPH)
VRB    - VARIABLE WIND DIRECTION
PRES   - MEAN SEA LEVEL PRESSURE IN INCHES OF MERCURY
         F - FALLING PRESSURE   R - RISING PRESSURE
         S - STEADY PRESSURE
VSB    - VISIBILITY IN MILES
HX     - HEAT INDEX IN FAHRENHEIT
WCI    - WIND CHILL INDEX IN FAHRENHEIT
TC     - TEMPERATURE IN CELSIUS WHICH IS ALSO KNOWN AS
         TEMPERATURE IN CENTIGRADE
AFB    - AIR FORCE BASE
         LUKE AFB IS LUKE AIR FORCE BASE
         DAVIS-MONTHAN IS DAVIS-MONTHAN AIR FORCE BASE
NAS    - NAVAL AIR STATION
         EL CENTRO NAS IS EL CENTRO NAVAL AIR STATION
N/A    - NOT AVAILABLE

  

Return to Home page


Western Regional Climate Center, wrcc@dri.edu